CZ-6A DEB, 61129

Orbit data source: Space-Track

CZ-6A DEB, 61129 is space debris in LEO originally from a launch on Tue, 06 Aug 2024 UTC launched from the Taiyaun Space Center, China (TSC). Debris objects in space refer to the collection of defunct objects orbiting the Earth. Examples of debris include non-operational satellites, rocket bodies, and fragments generated from explosions, collisions, or faulty payload assembly.

Loading next visibility...
Identifier
61129, 2024-140PX
Orbit
LEO
Country
Flag of CNCN / PRC
Related business
Manufacturer
SAST
Mission
Spacecraft
Bus & Motor
Unknown
Mass
Unknown
Launch date (UTC)
2024-08-06 (2 years ago)
Launch vehicle
Unknown
Launch site
Taiyaun Space Center, China (TSC)
Object type
Payload
Rocket body
Debris
Shape & HBR
Unknown shape, 0.1 m
Radar Cross Section
Medium (>0.1 m² and <1 m²)

Expand to show TLE details & history
Last TLE update: 15 hours ago

TLE from 15 hours ago
0 CZ-6A DEB
1 61129U 24140PX  26171.23941061  .00001447  00000-0  37319-3 0  9995
2 61129  89.0076 271.5884 0068216 296.7739  62.6498 14.48178358 96472
Epoch: 2026-06-20T05:44Z
TLE epoch observation values (Epoch: 2026-06-20T05:44:45.076Z)
Latitude
-0.00007°
Longitude
-83.0563°
Altitude
712.673 km
Speed
7.511 km/s
True Right ascension
18h 06m 21s
True Declination
0° 00' 00"
Sunlit
Object was in full shadow at epoch
Visualization orbit readout
Latitude
Unknown
Longitude
Unknown
Altitude
Unknown
Speed
Unknown
Apparent Right ascension
Unknown
Apparent Declination
Unknown
Sunlit
N/A
Visualization observer readout
Local Sidereal Time
07:21:01
Azimuth
Unknown
Elevation
Unknown
Doppler factor
Unknown
Orbital elements
Apogee altitude
776.994 km
Perigee altitude
680.036 km
Semi-major axis
7,106.652 km
Eccentricity
0.00682
Inclination
89.0076°
RAAN
271.5884°
Arg. of periapsis
296.7739°
True anomaly
63.34683°
Mean anomaly
62.6498°
Eccentric anomaly
62.99804°
Mean motion
3.62281 °/min
Orbital period
99.37 mins
BSTAR
0.00037319
Loading maneuver chart data...
Computing Atmospheric mass density...
Loading historical data...
Loading historical data...
Loading historical data...
Loading historical data...
Loading historical data...
Loading historical data...
Loading historical data...

Documentation

Showing up to 5 results
|